Weather History for Vancouver, WA

Change the Weather History Date:

Thursday, August 14, 2014

  Actual Average Record
Temperature  
Mean Temperature 70 °F 70 °F  
Max Temperature 79 °F 82 °F 102 °F (2008)
Min Temperature 61 °F 57 °F 46 °F (1902)
Degree Days  
Heating Degree Days 0    
Month to date heating degree days 0  
Since 1 July heating degree days 3  
Cooling Degree Days 5    
Month to date cooling degree days 117  
Year to date cooling degree days 349  
Growing Degree Days 22 (Base 50)    
Moisture  
Dew Point 58 °F    
Average Humidity 63    
Maximum Humidity 84    
Minimum Humidity 42    
Precipitation  
Precipitation 0.00 in 0.01 in 0.59 in (1922)
Month to date precipitation 0.02 0.24  
Year to date precipitation 22.27 21.30  
Sea Level Pressure  
Sea Level Pressure 29.98 in    
Wind  
Wind Speed 4 mph (NW)    
Max Wind Speed 9 mph    
Max Gust Speed 13 mph    
Visibility 10 miles    
Events      
T = Trace of Precipitation, MM = Missing Value Source: NWS Daily Summary

Daily Weather History Graph

Daily Weather History Graph

Search for Another Location

Airport:

Trip Planner

Search our weather history database for the weather conditions in past years. The results will help you decide how hot, cold, wet, or windy it might be!

Date:

Astronomy

Aug. 14, 2014 Rise Set
Actual Time 6:09 AM PDT 8:19 PM PDT
Civil Twilight 5:37 AM PDT 8:52 PM PDT
Nautical Twilight 4:57 AM PDT 9:32 PM PDT
Astronomical Twilight 4:12 AM PDT 10:16 PM PDT
Moon 10:28 PM PDT (8/14) 11:09 AM PDT (8/14)
Length of Visible Light 15h 14m
Length of Day
14h 09m
Waning Gibbous, 78% of the Moon is Illuminated
Aug 14
Waning Gibbous
Aug 17
Last Quarter
Aug 25
New
Sep 2
First Quarter
Sep 8
Full

Hourly Weather History & Observations

Time (PDT) Temp. Dew Point Humidity Pressure Visibility Wind Dir Wind Speed Gust Speed Precip Events Conditions
12:53 AM 64.0 °F 59.0 °F 84% 30.01 in 10.0 mi Calm Calm - N/A   Overcast
1:53 AM 64.9 °F 57.9 °F 78% 30.00 in 10.0 mi Calm Calm - N/A   Overcast
2:53 AM 64.9 °F 57.9 °F 78% 30.01 in 10.0 mi Calm Calm - N/A   Overcast
3:53 AM 64.9 °F 57.9 °F 78% 30.01 in 10.0 mi Calm Calm - N/A   Mostly Cloudy
4:53 AM 64.0 °F 57.9 °F 80% 30.00 in 10.0 mi Calm Calm - N/A   Overcast
5:53 AM 64.0 °F 59.0 °F 84% 30.01 in 10.0 mi Calm Calm - N/A   Overcast
6:53 AM 64.0 °F 59.0 °F 84% 30.01 in 10.0 mi East 4.6 mph - N/A   Mostly Cloudy
7:53 AM 64.9 °F 57.9 °F 78% 30.01 in 10.0 mi SSW 3.5 mph - N/A   Scattered Clouds
8:53 AM 66.0 °F 57.9 °F 75% 30.01 in 10.0 mi South 4.6 mph - N/A   Mostly Cloudy
9:33 AM 68.0 °F 57.9 °F 70% 30.01 in 10.0 mi Calm Calm - N/A   Overcast
9:53 AM 69.1 °F 57.9 °F 68% 30.02 in 10.0 mi Variable 4.6 mph - N/A   Overcast
10:53 AM 69.1 °F 57.0 °F 65% 30.01 in 10.0 mi Variable 3.5 mph - N/A   Mostly Cloudy
11:53 AM 71.1 °F 57.0 °F 61% 29.99 in 10.0 mi Variable 3.5 mph - N/A   Clear
12:53 PM 75.0 °F 55.9 °F 51% 29.98 in 10.0 mi Calm Calm - N/A   Clear
1:53 PM 73.9 °F 55.9 °F 53% 29.97 in 10.0 mi West 8.1 mph - N/A   Mostly Cloudy
2:53 PM 77.0 °F 55.0 °F 47% 29.96 in 10.0 mi Variable 4.6 mph - N/A   Clear
3:53 PM 77.0 °F 55.0 °F 47% 29.95 in 10.0 mi Variable 3.5 mph - N/A   Partly Cloudy
4:53 PM 79.0 °F 53.1 °F 40% 29.94 in 10.0 mi NNW 8.1 mph - N/A   Clear
5:53 PM 77.0 °F 54.0 °F 45% 29.94 in 10.0 mi NW 5.8 mph - N/A   Clear
6:53 PM 75.9 °F 55.9 °F 50% 29.94 in 10.0 mi NNE 4.6 mph - N/A   Partly Cloudy
7:53 PM 73.9 °F 57.9 °F 57% 29.94 in 10.0 mi North 3.5 mph - N/A   Clear
8:53 PM 71.1 °F 60.1 °F 68% 29.95 in 10.0 mi NW 4.6 mph - N/A   Clear
9:53 PM 70.0 °F 61.0 °F 73% 29.96 in 10.0 mi NW 5.8 mph - N/A   Mostly Cloudy
10:53 PM 69.1 °F 60.1 °F 73% 29.96 in 10.0 mi NNW 5.8 mph - N/A   Overcast
11:53 PM 69.1 °F 60.1 °F 73% 29.97 in 10.0 mi Variable 3.5 mph - N/A   Overcast